Location: Unspecified
(0.0000°N, 0.0000°E)
Time: 09:31:09
(UTC+00:00)

ARIANE 2 DEB - Pass Details

Date: 14 March 2026
Orbit: 598 x 35366 km, 8.4° (Epoch: 18 September)

Event Time Altitude Azimuth Distance (km) Brightness Sun altitude
Rises 03:25:20 0° 90° (E) 40,541 ? -40.9°
Reaches altitude 10° 05:17:32 10° 93° (E) 34,697 ? -12.9°
Maximum altitude 05:52:30 11° 94° (E) 31,304 ? -4.2°
Drops below altitude 10° 06:21:25 10° 95° (E) 27,894 ? 3.0°
Sets 07:10:30 0° 97° (E) 20,916 ? 15.3°
